EHI
0 0 0 1 0 0 0 0 0 0 1 0 0 0 0 0 0 0 0 1 1 0 0 1 2 2 3 3 1 0 0 0 0 0 0 0 0 0 0 0 1 1 1
0 0 1 2 2 1 1 1 0 1 1 0 0 0 0 0 0 0 0 1 2 1 1 1 1 1 2 3 2 1 1 0 0 0 0 0 0 0 0 0 0 0 0
2 2 3 5 4 2 2 3 2 2 1 0 0 0 0 0 0 0 0 1 2 2 2 2 1 1 2 2 2 2 2 1 0 0 0 0 0 0 0 0 0 0 0
5 6 6 6 5 4 4 5 5 4 2 1 1 0 0 1 1 0 0 0 1 2 3 3 3 3 3 2 2 2 2 2 1 1 1 0 0 0 0 0 0 0 0
8 9 10 8 6 5 5 5 6 6 5 3 2 0 1 2 2 1 1 1 2 2 3 3 3 3 4 3 2 1 1 2 2 2 1 0 0 0 0 0 0 0 0
10 11 11 10 8 7 7 7 7 8 8 6 3 1 1 2 3 3 2 2 2 2 2 3 3 4 5 5 4 3 2 1 1 1 1 0 0 0 0 0 0 0 0
10 12 12 10 10 10 10 9 9 10 11 10 7 4 3 3 3 3 3 2 1 0 1 1 3 4 5 7 7 6 5 4 2 1 1 1 1 0 0 0 0 0 0
7 9 10 10 9 10 11 11 11 12 12 12 10 7 4 3 3 2 2 1 1 1 0 1 3 4 6 7 7 7 8 9 6 3 2 3 3 1 1 0 0 0 0
5 6 8 8 7 7 9 10 11 11 12 12 11 9 6 5 4 2 1 1 2 2 1 1 2 4 5 6 6 5 7 8 7 4 4 4 4 3 2 1 0 0 0
6 6 7 8 8 8 8 9 9 10 11 11 10 9 8 7 6 4 2 2 1 1 1 0 1 2 3 4 5 3 2 3 4 4 4 4 3 2 2 2 1 1 1
9 8 9 10 11 11 10 10 10 10 10 9 9 8 8 7 6 5 3 2 1 1 1 1 0 0 2 4 4 2 0 0 1 2 2 2 1 2 3 3 4 4 3
12 11 12 12 13 12 11 10 10 9 8 7 7 6 5 4 4 3 2 2 2 2 2 2 1 1 2 4 4 2 0 0 0 0 1 1 0 1 2 3 5 5 5
14 15 15 15 15 13 11 9 9 8 7 6 5 5 3 2 2 1 1 2 2 2 2 2 2 2 3 4 4 2 1 0 0 0 0 0 0 0 1 1 3 3 3
16 17 16 16 15 13 10 8 8 7 7 7 5 5 4 3 2 2 2 3 3 2 1 2 2 2 3 3 2 2 2 1 0 0 0 0 0 0 0 0 1 1 1
18 17 15 15 13 10 9 9 8 8 8 7 6 7 6 4 3 3 4 6 6 4 2 2 2 2 2 2 1 1 2 2 0 0 0 0 0 0 0 0 0 0 0
22 20 17 15 12 10 10 10 9 9 8 7 6 7 7 5 4 4 5 7 8 7 4 3 3 2 2 2 1 1 2 1 0 0 0 0 0 0 0 0 0 0 0
26 25 23 20 16 12 12 13 11 9 8 8 8 8 8 9 8 6 6 7 9 8 5 3 3 3 2 3 2 2 1 1 1 0 0 0 0 0 0 0 0 0 0
29 29 28 25 21 16 14 15 13 9 8 9 11 12 12 13 12 9 7 6 7 7 5 3 4 5 5 4 4 3 3 3 2 0 0 0 0 0 0 0 0 0 0
32 32 31 29 25 20 17 16 13 10 10 12 14 14 13 14 13 10 8 6 5 5 5 4 6 8 6 5 5 6 5 6 3 0 0 0 0 0 0 0 0 0 0
35 35 34 32 28 23 21 18 14 11 13 15 15 14 13 12 11 10 9 8 7 6 5 5 5 6 5 3 5 6 6 5 3 1 1 0 0 0 0 0 0 0 0
35 36 35 34 31 26 21 18 14 13 15 16 16 15 14 12 9 8 8 8 7 6 5 4 2 2 2 2 3 4 4 2 2 2 2 1 0 1 1 1 0 0 0
34 35 35 35 33 25 17 12 12 14 17 18 17 16 14 12 9 6 4 3 3 4 3 2 1 1 2 1 2 2 1 0 1 3 2 1 0 1 2 1 0 0 0
34 33 33 34 32 24 13 6 6 10 14 17 18 16 14 11 9 7 4 3 2 2 2 2 2 2 1 1 2 2 1 0 1 2 1 0 0 1 1 1 0 0 0
34 33 31 30 28 21 11 3 2 6 10 14 17 16 14 10 7 6 5 5 5 3 2 2 2 2 1 1 1 1 1 0 0 1 2 1 1 0 0 1 1 0 0
30 30 27 24 22 18 10 3 2 6 9 12 15 14 11 7 4 3 4 5 5 4 2 1 1 1 0 0 0 1 1 1 1 2 3 3 1 0 1 2 2 1 0
26 25 23 20 18 16 9 2 2 7 10 12 13 11 7 5 3 2 3 4 4 3 1 0 0 0 0 0 0 0 1 2 2 3 3 3 1 0 1 2 2 1 0
Wind_Speed
3 3 2 1 1 2 2 1 2 2 1 1 1 2 1 2 2 2 5 8 6 6 6 7 7 7 7 7 7 7 7 8 8 7 7 7 8 8 7 7 7 8 8
2 2 2 1 1 0 1 0 1 1 0 1 1 1 0 1 1 2 3 7 8 7 6 7 7 7 8 8 8 8 8 8 8 7 7 7 7 8 8 8 8 8 8
2 1 1 1 0 1 1 1 0 1 1 1 1 1 1 1 1 2 2 2 6 9 8 8 8 8 8 8 8 9 9 9 9 8 8 8 8 8 9 8 9 9 9
1 1 1 1 1 1 1 1 1 1 0 1 1 1 1 2 3 3 3 3 3 4 9 10 8 8 9 9 9 9 10 10 10 10 10 10 9 9 9 9 9 9 9
2 2 1 0 2 1 1 2 0 1 1 1 2 2 2 2 3 3 3 4 4 4 4 10 11 10 10 10 9 10 10 11 11 11 11 11 11 10 10 10 10 10 10
2 2 2 2 2 1 1 1 2 2 2 2 3 2 3 2 3 3 4 4 4 5 6 5 7 9 12 11 10 10 11 10 11 12 12 12 12 11 10 11 11 11 11
2 2 2 2 2 1 2 3 3 2 2 2 3 3 3 4 3 3 4 3 4 5 5 5 5 4 7 13 12 11 11 11 11 11 12 13 13 13 12 12 12 12 12
4 4 3 3 2 2 2 3 3 3 2 1 3 3 3 3 4 4 3 4 3 3 5 6 5 4 5 4 7 11 11 11 12 11 12 13 13 13 14 14 14 13 13
4 3 3 3 3 3 2 3 4 4 3 2 2 3 3 2 1 3 3 2 2 2 3 3 4 4 5 4 4 9 10 10 11 11 11 12 13 13 13 14 14 13 13
4 4 4 4 4 3 2 4 3 3 4 3 2 2 3 4 4 2 2 2 3 3 3 3 3 3 4 4 3 2 6 8 9 10 11 11 11 12 13 13 13 13 13
5 5 4 4 4 4 3 4 3 4 4 4 3 3 3 3 5 4 3 2 2 2 2 2 2 2 3 3 3 2 5 6 7 9 10 10 11 11 12 13 14 14 13
4 5 5 4 4 4 3 4 4 4 4 4 4 3 3 3 3 3 4 4 2 1 1 1 2 2 2 2 2 2 3 4 4 5 7 7 8 9 9 11 12 13 13
4 4 4 4 4 3 4 4 4 4 4 4 4 4 3 3 3 4 5 4 4 2 1 2 1 1 2 1 0 2 2 3 3 3 4 5 6 7 8 8 9 10 11
4 4 4 4 4 4 4 3 3 3 3 4 4 4 3 3 3 4 4 4 4 3 2 2 1 0 1 1 2 2 1 3 3 3 3 3 3 5 6 7 7 8 8
4 5 5 5 4 4 4 4 3 3 3 4 4 3 3 2 3 3 3 4 4 4 3 1 1 2 2 1 2 1 0 3 3 2 2 2 2 2 3 4 5 6 6
4 4 4 4 4 3 4 4 3 2 3 3 3 3 3 3 2 3 3 3 3 4 4 2 2 2 3 2 1 1 0 4 3 2 2 2 1 1 2 2 3 3 4
5 5 5 4 3 3 3 3 3 2 3 3 2 2 3 3 3 2 2 2 2 2 3 3 2 2 2 3 2 2 2 1 2 3 3 2 1 1 1 1 1 1 1
5 5 4 4 4 3 3 3 3 2 2 2 2 2 3 2 2 3 2 2 2 2 3 3 2 2 2 2 3 3 1 1 1 5 4 3 3 3 2 2 1 0 1
6 5 5 4 3 2 2 2 2 2 1 1 1 1 2 2 2 2 2 2 1 1 2 2 2 2 2 2 2 2 1 1 0 3 5 6 4 3 2 2 1 0 1
5 5 5 4 3 2 2 2 2 1 1 0 1 1 1 2 2 2 1 1 1 1 1 2 2 1 1 2 2 2 1 0 1 1 1 3 4 5 3 2 1 0 1
5 4 4 4 3 3 1 2 2 2 1 1 1 2 3 4 6 4 3 2 1 2 1 1 1 1 2 2 3 3 2 1 0 1 1 0 1 1 2 2 1 1 0
4 4 4 4 3 1 4 2 1 2 2 2 2 1 2 3 4 4 4 5 4 2 2 2 2 2 2 3 3 3 2 2 1 1 2 1 1 1 1 1 2 1 0
4 4 4 3 3 3 5 3 1 1 2 2 2 1 1 3 2 2 3 3 4 4 2 2 3 3 3 4 4 4 3 3 2 2 2 2 1 2 1 3 4 2 2
4 3 3 3 3 4 5 4 2 3 2 2 2 2 2 3 4 2 2 3 4 4 3 2 3 3 4 4 4 3 3 2 0 1 3 3 2 2 2 1 4 4 3
4 4 4 4 4 4 4 3 2 3 3 3 3 4 3 3 5 4 1 2 3 3 4 4 3 2 3 4 5 3 3 3 2 2 3 3 2 3 2 1 2 4 3
4 4 4 4 5 5 5 3 1 2 3 3 3 4 6 5 5 4 1 2 2 2 3 2 2 1 2 3 2 4 4 4 3 2 3 3 3 3 2 1 2 1 1
Wind_Direction
106 97 85 79 96 107 141 120 84 88 84 111 95 84 71 72 98 124 125 150 164 173 174 174 176 176 177 179 181 183 186 186 186 186 188 187 186 185 186 186 187 185 184
93 106 128 111 83 71 42 82 121 165 159 104 126 108 189 133 134 153 153 159 174 184 189 188 188 188 189 189 191 192 195 197 195 194 197 198 198 197 197 199 200 198 195
117 142 131 168 104 111 156 211 161 223 204 197 216 220 219 226 187 194 201 180 174 185 195 201 203 203 202 203 203 203 204 205 202 203 204 206 207 207 208 209 210 210 205
174 217 186 168 192 221 210 202 227 247 278 258 260 279 255 211 222 214 207 208 214 188 186 197 209 214 214 215 216 216 214 212 210 209 211 212 213 215 215 214 215 212 209
205 236 207 243 243 244 257 274 33 278 270 281 250 233 249 236 227 225 225 216 212 225 206 178 199 214 220 221 224 226 223 219 216 215 217 218 218 217 217 216 216 215 215
205 227 209 228 250 249 261 300 286 276 274 275 282 273 248 242 244 232 234 216 212 216 224 210 200 205 212 221 224 228 230 226 222 219 220 222 222 219 219 219 220 219 219
215 237 243 229 252 242 253 254 262 247 259 275 272 264 237 216 220 229 232 238 216 215 223 225 230 228 201 205 216 225 231 232 229 227 224 223 223 220 219 221 223 223 222
218 216 227 238 243 247 248 258 265 277 277 270 288 278 250 202 204 211 213 219 233 223 222 219 223 228 255 218 192 208 227 233 233 232 230 227 224 220 220 222 224 226 225
219 235 227 243 252 254 248 258 256 257 272 262 264 290 302 308 294 176 205 218 224 247 248 237 221 220 233 244 223 196 212 228 233 234 233 230 226 221 221 224 225 225 225
221 220 227 230 243 257 255 255 253 266 265 270 244 246 277 311 301 284 205 190 212 225 244 249 237 220 228 233 228 238 201 217 227 235 237 235 230 223 221 222 223 225 225
221 227 224 232 240 252 259 273 272 270 267 273 278 265 256 250 257 279 290 289 245 224 226 238 245 246 237 236 241 226 180 205 222 233 236 235 231 228 222 221 223 226 227
214 216 224 229 237 248 249 251 256 252 265 277 279 274 268 274 275 270 276 277 274 275 266 270 270 267 252 246 243 94 165 199 219 231 235 234 231 228 227 227 227 229 229
214 209 223 228 242 242 246 248 243 263 258 260 265 272 275 274 286 281 279 282 287 277 253 230 241 288 285 278 283 139 173 193 211 222 231 236 232 229 229 230 233 234 235
229 206 215 225 237 243 241 232 248 248 248 256 263 272 275 276 278 275 278 284 281 276 265 285 285 354 333 323 10 235 190 167 189 202 216 225 229 228 227 227 232 236 238
220 210 215 220 228 232 236 236 245 260 254 252 253 243 253 263 267 276 276 276 279 282 283 291 314 360 330 347 352 310 314 108 140 167 189 208 225 229 229 227 227 230 231
216 213 217 218 225 227 225 234 241 239 243 249 258 273 271 271 274 274 275 272 272 277 286 317 316 334 339 316 28 293 184 115 117 145 156 161 177 201 212 217 223 226 227
205 206 209 216 222 226 226 228 248 248 251 262 268 266 272 292 287 279 272 266 266 265 266 287 312 330 328 314 310 284 242 225 135 129 134 131 125 108 107 128 167 210 228
205 204 205 207 216 220 221 226 237 240 246 265 290 303 292 284 284 291 284 276 276 269 261 272 295 308 306 299 296 283 277 242 124 118 134 126 102 90 81 81 82 84 237
205 203 200 201 204 207 206 216 230 246 257 275 304 324 319 318 309 318 293 282 273 258 256 256 273 306 304 318 308 302 335 331 281 135 145 136 123 117 100 79 65 316 253
200 197 192 189 188 190 191 203 218 225 231 123 38 14 352 338 327 312 305 320 323 299 266 263 280 301 310 328 316 315 317 334 321 335 87 127 142 148 130 98 53 343 260
192 184 179 179 186 190 178 179 199 185 162 133 97 73 60 50 33 12 353 354 343 313 309 292 297 308 339 328 322 315 314 310 30 0 333 109 162 171 157 156 177 352 280
181 172 172 174 182 162 87 73 254 154 142 140 127 112 114 97 79 70 49 35 15 346 341 331 319 332 338 333 329 312 322 308 305 13 305 298 323 331 346 49 70 92 134
168 165 163 158 148 104 92 93 90 158 132 125 122 125 98 83 86 96 115 117 77 52 19 328 354 349 352 354 332 321 332 327 341 357 306 300 336 343 4 77 98 106 106
150 147 143 140 125 104 103 115 132 143 112 102 99 91 76 71 45 22 74 73 66 56 42 36 30 11 10 353 328 314 308 274 232 33 338 315 340 340 345 63 116 124 126
141 135 125 117 111 102 100 122 158 132 119 102 86 67 58 71 31 358 45 64 65 71 81 81 68 39 19 5 342 326 327 323 338 19 8 329 336 330 326 341 124 147 159
127 121 109 100 96 93 78 71 278 147 124 116 100 85 61 51 36 14 45 58 47 28 27 57 89 85 39 49 30 358 343 332 331 349 25 329 326 325 318 342 353 359 203